Probability
0 0 0 0 0 0 0 0 0 0 0 0 0 0 0 0 0 0 0 0 0 0 0 0 0 0 0 0 0 0 0 0 0 0 0 0 0 0 0 0 0 0 0
0 0 0 0 0 0 0 0 0 0 0 0 0 0 0 0 0 0 0 0 0 0 0 0 0 0 0 0 0 0 0 0 0 0 0 0 0 0 0 0 0 0 0
0 0 0 0 0 0 0 0 0 0 0 0 0 0 0 0 0 0 0 0 0 0 0 0 0 0 0 0 0 0 0 0 0 0 0 0 0 0 0 0 0 0 0
0 0 0 0 0 0 0 0 0 0 0 0 0 0 0 0 0 0 0 0 0 0 0 0 0 0 0 0 0 0 0 0 0 0 0 0 0 0 0 0 0 0 0
0 0 0 0 0 0 0 0 0 0 0 0 0 0 0 0 0 0 0 0 0 0 0 0 0 0 0 0 0 0 0 0 0 0 0 0 0 0 0 0 0 0 0
0 0 0 0 0 0 0 0 0 0 0 0 0 0 0 0 0 0 0 0 0 0 0 0 0 0 0 0 0 0 0 0 0 0 0 0 0 0 0 0 0 0 0
0 0 0 0 0 0 0 0 0 0 0 0 0 0 0 0 0 0 0 0 0 0 0 0 0 0 0 0 0 0 0 0 0 0 0 0 0 0 0 0 0 0 0
0 0 0 0 0 0 0 0 0 0 0 0 0 0 0 0 0 0 0 0 0 0 0 0 0 0 0 0 0 0 0 0 0 0 0 0 0 0 0 0 0 0 0
0 0 0 0 0 0 0 0 0 0 0 0 0 0 0 0 0 0 0 0 0 0 0 0 0 0 0 0 0 0 0 0 0 0 0 0 0 0 0 0 0 0 0
0 0 0 0 0 0 0 0 0 0 0 0 0 0 0 0 0 0 0 0 0 0 0 0 0 0 0 0 0 0 0 0 0 0 0 0 0 0 0 0 0 0 0
0 0 0 0 0 0 0 0 0 0 0 0 0 0 0 0 0 0 0 0 0 0 0 0 0 0 0 0 0 0 0 0 0 0 0 0 0 0 0 0 0 0 0
0 0 0 0 0 0 0 0 0 0 0 0 0 0 0 0 0 0 0 0 0 0 0 0 0 0 0 0 0 0 0 0 0 0 0 0 0 0 0 0 0 0 0
0 0 0 0 0 0 0 0 0 0 0 0 0 0 0 0 0 0 0 0 0 0 0 0 0 0 0 0 0 0 0 0 0 0 0 0 0 0 0 0 0 0 0
0 0 0 0 0 0 0 0 0 0 0 0 0 0 0 0 0 0 0 0 0 0 0 0 0 0 0 0 0 0 0 0 0 0 0 0 0 0 0 0 0 0 0
0 0 0 0 0 0 0 0 0 0 0 0 0 0 0 0 0 0 0 0 0 0 0 0 0 0 0 0 0 0 0 0 0 0 0 0 0 0 0 0 0 0 0
0 0 0 0 0 0 0 0 0 0 0 0 0 0 0 0 0 0 0 0 0 0 0 0 0 0 0 0 0 0 0 0 0 0 0 0 0 0 0 0 0 0 0
0 0 0 0 0 0 0 0 0 0 0 0 0 0 0 0 0 0 0 0 0 0 0 0 0 0 0 0 0 0 0 0 0 0 0 0 0 0 0 0 0 0 0
0 0 0 0 0 0 0 0 0 0 0 0 0 0 0 0 0 0 0 0 0 0 0 0 0 0 0 0 0 0 0 0 0 0 0 0 0 0 0 0 0 0 0
0 0 0 0 0 0 0 0 0 0 0 0 0 0 0 0 0 0 0 0 0 0 0 0 0 0 0 0 0 0 0 0 0 0 0 0 0 0 0 0 0 0 0
0 0 0 0 0 0 0 0 0 0 0 0 0 0 0 0 0 0 0 0 0 0 0 0 0 0 0 0 0 0 0 0 0 0 0 0 0 0 0 0 0 0 0
0 0 0 0 0 0 0 0 0 0 0 0 0 0 0 0 0 0 0 0 0 0 0 0 0 0 0 0 0 0 0 0 0 0 0 0 0 0 0 0 0 0 0
0 0 0 0 0 0 0 0 0 0 0 0 0 0 0 0 0 0 0 0 0 0 0 0 0 0 0 0 0 0 0 0 0 0 0 0 0 0 0 0 0 0 0
0 0 0 0 0 0 0 0 0 0 0 0 0 0 0 0 0 0 0 0 0 0 0 0 0 0 0 0 0 0 0 0 0 0 0 0 0 0 0 0 0 0 0
0 0 0 0 0 0 0 0 0 0 0 0 0 0 0 0 0 0 0 0 0 0 0 0 0 0 0 0 0 0 0 0 0 0 0 0 0 0 0 0 0 0 0
0 0 0 0 0 0 0 0 0 0 0 0 0 0 0 0 0 0 0 0 0 0 0 0 0 0 0 0 0 0 0 0 0 0 0 0 0 0 0 0 0 0 0
0 0 0 0 0 0 0 0 0 0 0 0 0 0 0 0 0 0 0 0 0 0 0 0 0 0 0 0 0 0 0 0 0 0 0 0 0 0 0 0 0 0 0
Height
5661 5658 5656 5654 5651 5649 5648 5646 5645 5643 5642 5641 5640 5639 5638 5638 5638 5637 5637 5636 5636 5635 5635 5634 5632 5631 5630 5629 5628 5627 5627 5627 5629 5631 5631 5631 5632 5633 5635 5636 5638 5640 5642
5657 5654 5652 5650 5647 5645 5643 5641 5639 5638 5636 5635 5634 5633 5632 5631 5630 5629 5628 5627 5626 5625 5624 5623 5621 5620 5618 5616 5614 5613 5612 5612 5613 5615 5615 5615 5616 5617 5618 5620 5622 5623 5624
5653 5651 5648 5646 5643 5641 5638 5636 5634 5632 5630 5628 5627 5626 5624 5623 5622 5621 5619 5618 5617 5615 5613 5611 5609 5607 5605 5603 5602 5600 5598 5597 5597 5598 5599 5599 5599 5599 5601 5602 5604 5605 5607
5649 5646 5644 5641 5639 5636 5633 5631 5629 5627 5624 5622 5620 5619 5617 5615 5613 5611 5609 5608 5606 5604 5601 5599 5597 5595 5593 5591 5588 5586 5585 5583 5581 5581 5582 5582 5582 5582 5582 5584 5585 5586 5588
5645 5642 5639 5636 5633 5631 5628 5626 5623 5621 5618 5616 5613 5611 5609 5606 5604 5602 5599 5597 5594 5592 5589 5587 5584 5582 5579 5577 5574 5572 5570 5567 5565 5564 5563 5563 5563 5563 5563 5564 5565 5568 5569
5640 5637 5634 5631 5628 5625 5623 5620 5617 5614 5612 5609 5606 5603 5600 5597 5594 5591 5588 5585 5582 5579 5576 5573 5570 5567 5564 5561 5559 5556 5553 5551 5548 5547 5545 5544 5544 5543 5543 5544 5545 5547 5551
5635 5632 5629 5626 5623 5620 5617 5614 5611 5607 5604 5601 5598 5594 5591 5587 5584 5580 5577 5573 5570 5566 5563 5559 5556 5552 5549 5545 5542 5539 5535 5532 5530 5528 5526 5525 5524 5524 5523 5524 5523 5525 5528
5629 5626 5623 5620 5617 5613 5610 5607 5603 5600 5596 5593 5589 5585 5581 5577 5573 5569 5565 5561 5557 5553 5548 5544 5540 5536 5531 5528 5524 5520 5516 5512 5509 5507 5505 5504 5502 5500 5500 5500 5501 5503 5506
5623 5620 5617 5613 5610 5606 5602 5599 5595 5591 5587 5583 5579 5575 5570 5566 5561 5556 5552 5547 5543 5538 5533 5528 5523 5519 5514 5510 5506 5501 5497 5492 5488 5485 5482 5480 5478 5477 5476 5476 5477 5479 5483
5616 5613 5609 5606 5602 5598 5594 5590 5586 5582 5578 5573 5569 5564 5559 5554 5549 5544 5539 5534 5529 5523 5518 5512 5506 5500 5495 5489 5484 5480 5476 5471 5467 5463 5460 5457 5455 5453 5452 5451 5451 5453 5456
5609 5605 5602 5598 5594 5590 5586 5582 5577 5573 5568 5563 5558 5553 5547 5542 5536 5530 5524 5519 5513 5507 5501 5494 5488 5481 5475 5468 5462 5457 5453 5449 5445 5441 5438 5435 5432 5430 5428 5427 5426 5427 5430
5601 5597 5594 5590 5586 5581 5577 5572 5568 5563 5558 5552 5546 5541 5535 5528 5522 5516 5510 5503 5497 5491 5484 5477 5470 5463 5456 5449 5442 5437 5432 5427 5423 5419 5416 5412 5410 5407 5405 5404 5403 5403 5404
5593 5589 5585 5580 5576 5572 5567 5562 5557 5552 5547 5541 5535 5529 5522 5515 5509 5502 5496 5489 5482 5475 5468 5461 5453 5445 5438 5431 5424 5418 5412 5407 5402 5398 5394 5391 5388 5385 5383 5381 5380 5380 5382
5584 5579 5575 5571 5566 5562 5557 5552 5546 5541 5535 5529 5523 5516 5510 5503 5496 5489 5482 5475 5467 5460 5452 5444 5436 5428 5421 5413 5406 5400 5394 5388 5383 5379 5374 5371 5367 5365 5363 5361 5361 5361 5362
5574 5570 5565 5561 5556 5551 5546 5540 5535 5529 5523 5517 5510 5504 5497 5490 5483 5475 5468 5460 5453 5445 5436 5428 5420 5412 5404 5397 5390 5383 5377 5371 5365 5360 5356 5352 5349 5346 5344 5342 5341 5341 5342
5564 5559 5555 5550 5545 5540 5534 5529 5522 5517 5510 5504 5497 5491 5484 5477 5469 5462 5454 5446 5437 5429 5421 5413 5405 5397 5389 5382 5375 5368 5361 5354 5349 5344 5339 5335 5332 5329 5326 5324 5322 5322 5323
5553 5548 5544 5539 5534 5528 5523 5517 5511 5504 5498 5491 5485 5478 5471 5464 5456 5448 5440 5431 5423 5415 5406 5398 5390 5382 5375 5367 5360 5353 5347 5340 5334 5329 5325 5321 5317 5313 5310 5307 5305 5305 5306
5542 5537 5532 5528 5522 5517 5511 5505 5499 5493 5486 5479 5472 5465 5458 5451 5443 5435 5426 5418 5409 5401 5392 5384 5377 5369 5362 5354 5347 5340 5334 5328 5322 5317 5312 5308 5303 5299 5296 5294 5292 5292 5293
5530 5526 5521 5516 5511 5505 5500 5494 5487 5481 5475 5468 5461 5453 5446 5438 5430 5421 5413 5405 5396 5388 5380 5372 5364 5357 5350 5343 5336 5329 5323 5317 5311 5305 5301 5296 5292 5288 5285 5283 5281 5281 5281
5519 5514 5510 5505 5499 5494 5488 5482 5476 5469 5463 5456 5449 5442 5434 5426 5418 5409 5401 5392 5384 5376 5368 5360 5353 5346 5339 5332 5325 5319 5313 5307 5301 5295 5291 5286 5282 5279 5276 5274 5273 5272 5272
5507 5503 5498 5493 5488 5482 5477 5471 5464 5458 5451 5444 5437 5430 5423 5415 5406 5398 5390 5381 5373 5365 5358 5350 5343 5336 5328 5322 5315 5309 5304 5298 5292 5288 5283 5279 5275 5272 5269 5267 5266 5265 5265
5495 5491 5486 5481 5476 5471 5465 5459 5453 5447 5440 5434 5426 5419 5411 5404 5395 5387 5379 5371 5363 5355 5348 5341 5334 5327 5320 5313 5307 5301 5296 5291 5286 5281 5277 5273 5270 5267 5265 5263 5261 5260 5260
5483 5479 5475 5470 5465 5459 5453 5448 5442 5436 5430 5423 5416 5409 5401 5394 5386 5378 5370 5362 5354 5346 5339 5332 5325 5319 5313 5307 5301 5295 5290 5285 5280 5276 5272 5269 5266 5263 5261 5260 5258 5257 5257
5472 5468 5463 5458 5453 5448 5442 5437 5431 5426 5420 5413 5406 5399 5392 5384 5377 5369 5361 5353 5346 5338 5331 5325 5319 5313 5307 5301 5296 5290 5285 5280 5276 5272 5268 5265 5263 5261 5259 5258 5256 5255 5256
5460 5456 5452 5447 5442 5437 5432 5427 5421 5416 5410 5404 5397 5390 5383 5376 5368 5361 5353 5346 5339 5332 5325 5319 5313 5307 5302 5297 5291 5286 5281 5276 5272 5269 5266 5263 5261 5260 5258 5257 5256 5255 5255
5449 5445 5440 5436 5431 5426 5421 5416 5411 5406 5400 5394 5388 5381 5375 5368 5361 5354 5346 5339 5333 5326 5320 5314 5309 5303 5298 5292 5287 5282 5278 5273 5270 5267 5264 5262 5261 5259 5258 5257 5256 5256 5256
Wind_Speed
18 18 18 18 20 20 20 21 22 23 24 25 26 27 28 30 31 32 33 34 36 37 38 39 40 41 43 45 47 49 51 53 54 53 54 54 56 57 57 56 56 56 56
16 16 16 17 18 19 20 21 22 22 24 25 25 27 28 29 30 31 32 34 35 37 39 40 40 42 43 44 46 48 50 52 53 53 53 54 55 57 56 56 57 57 57
15 16 17 17 18 18 19 19 20 21 22 23 24 26 27 28 31 33 34 35 37 38 40 41 42 43 44 45 46 48 49 51 52 52 53 53 54 56 57 57 57 57 58
16 16 17 18 19 19 19 20 20 21 22 23 25 26 27 29 30 32 34 36 38 39 40 41 42 43 45 46 47 48 49 50 52 54 55 55 55 56 58 59 58 58 59
17 18 19 19 20 21 21 21 22 23 24 25 26 28 29 31 32 34 36 37 39 40 42 43 44 45 46 46 48 49 50 51 53 54 55 56 57 58 59 59 59 59 60
19 19 20 20 21 22 22 23 24 25 26 27 28 30 31 32 34 35 37 38 39 41 43 44 46 47 48 49 49 51 52 53 54 55 56 57 58 59 60 60 61 61 60
21 21 21 22 22 23 25 25 26 27 28 29 31 32 33 34 35 36 37 38 40 42 44 46 48 49 50 51 53 55 55 56 57 58 58 59 59 61 62 61 61 62 61
21 22 23 24 25 26 26 27 28 29 30 31 33 34 35 36 37 38 40 41 42 44 46 48 50 51 53 54 55 56 58 59 59 60 61 61 62 62 63 64 64 63 64
24 25 26 26 27 28 28 29 30 31 33 34 35 36 37 38 39 41 42 43 45 46 48 50 52 53 55 56 57 58 59 60 61 62 62 63 63 64 65 66 67 67 66
26 27 28 29 30 30 31 32 33 34 35 37 37 38 40 41 42 43 45 46 48 49 51 52 54 56 57 58 59 60 60 60 61 61 62 62 63 63 64 66 67 68 68
28 29 31 31 32 32 33 34 35 36 37 38 40 41 42 43 45 47 48 49 50 51 52 53 55 57 58 59 59 60 60 60 60 60 61 62 62 63 63 64 66 67 67
29 30 31 32 33 34 35 36 37 38 39 40 42 43 45 46 47 48 48 49 50 51 52 54 55 56 57 58 58 58 58 58 58 58 59 59 60 61 61 62 63 64 65
31 32 33 34 34 35 36 38 39 40 41 43 44 45 47 48 48 48 48 49 50 52 53 54 55 55 56 56 56 56 56 56 56 56 56 56 57 58 58 57 58 59 59
34 34 35 35 36 37 38 40 41 43 44 45 46 47 47 47 48 48 49 50 52 53 54 54 54 54 54 53 53 53 54 54 54 53 53 52 53 53 54 54 54 55 54
36 36 37 37 38 39 41 42 43 44 45 46 46 46 46 47 48 49 50 52 53 53 54 54 53 52 52 51 51 51 51 51 51 50 49 48 48 49 50 51 52 52 52
37 38 39 39 40 41 42 43 44 45 45 46 47 47 47 48 49 51 52 53 54 54 53 52 51 50 50 49 49 49 49 49 48 46 45 45 45 46 47 48 49 49 49
39 39 40 40 41 42 43 43 44 45 46 47 47 47 48 49 50 51 52 53 53 52 51 50 49 48 48 47 46 46 45 45 44 43 42 41 42 42 42 42 43 42 42
40 40 41 41 42 42 43 43 44 44 45 47 47 48 49 50 51 52 52 52 52 51 50 48 47 46 46 45 44 43 42 41 40 39 38 38 38 38 37 36 36 36 36
40 41 41 42 42 42 43 44 44 45 46 46 47 48 49 50 51 52 51 51 50 49 48 47 46 44 43 42 41 40 39 38 37 37 36 35 35 33 31 31 30 31 32
41 41 42 42 42 43 44 44 45 45 46 46 47 48 49 49 50 50 50 49 48 46 45 44 43 42 41 40 38 37 36 35 34 33 32 31 29 27 26 26 26 26 27
41 41 42 42 43 44 44 44 44 44 45 46 46 47 48 48 48 48 47 47 45 44 43 41 40 39 38 37 36 35 34 32 30 29 28 26 24 22 22 22 21 22 22
41 41 42 43 43 44 44 43 44 44 44 45 46 46 47 47 46 46 46 44 43 41 40 39 38 36 35 34 33 31 30 28 27 26 24 22 20 19 18 17 16 16 17
41 41 42 42 42 43 43 43 43 43 44 44 44 45 45 45 44 44 43 42 40 39 38 36 35 33 32 31 30 28 27 26 24 23 21 19 17 16 14 13 12 11 11
41 41 41 42 42 42 42 41 41 42 43 43 43 43 43 43 42 42 41 40 38 36 35 33 32 30 29 28 28 26 25 23 21 20 18 16 13 12 11 10 9 9 9
40 41 42 42 42 42 41 40 40 41 41 41 41 41 41 41 41 40 39 38 35 33 32 31 29 28 27 27 26 25 23 21 18 16 14 12 10 9 8 7 6 6 6
40 41 41 41 41 40 40 39 39 39 39 39 39 39 39 39 39 39 37 34 33 31 30 29 27 26 26 25 24 23 21 18 16 13 10 8 7 7 6 4 3 3 5
Wind_Direction
295 295 294 293 292 291 288 287 284 283 282 281 278 276 274 271 270 270 269 268 267 268 268 269 270 270 269 269 267 266 265 265 264 263 263 262 260 260 259 259 260 260 258
298 299 300 299 297 293 291 289 289 286 284 282 279 279 277 275 273 273 273 272 271 271 272 272 272 272 271 272 271 268 267 267 267 265 264 263 261 260 260 259 258 258 258
302 300 301 300 300 298 295 292 291 291 290 288 285 284 283 279 278 276 275 274 274 274 275 275 274 274 274 273 272 271 271 270 269 268 266 264 263 262 261 260 259 258 257
302 302 299 297 298 298 298 298 296 296 295 293 291 289 287 285 283 281 279 278 277 276 276 276 276 276 275 275 274 274 273 272 270 269 267 265 264 263 261 260 259 258 256
300 302 301 300 300 299 298 297 297 297 297 296 294 292 290 288 286 284 282 282 280 280 280 279 278 278 277 277 276 275 275 274 272 270 269 267 266 264 263 262 260 257 256
302 303 304 304 302 302 300 299 298 297 297 296 296 295 294 292 291 289 287 285 284 283 282 281 281 280 279 279 278 277 276 275 273 272 270 269 267 265 263 262 260 258 257
302 303 303 304 302 301 301 300 299 299 299 299 299 298 297 296 294 292 290 288 287 286 284 283 283 282 282 281 280 279 278 276 274 273 271 270 269 267 265 264 261 259 258
302 303 303 303 303 303 303 302 302 302 302 301 301 300 299 297 296 295 293 291 290 288 287 286 286 284 283 283 282 281 280 278 277 275 274 272 270 269 267 265 262 259 258
302 303 303 303 303 303 302 302 302 302 302 302 302 302 300 299 299 298 297 295 294 292 291 290 288 287 285 284 283 283 281 280 278 277 275 273 271 269 267 265 263 260 258
302 302 303 303 303 303 303 303 303 304 304 304 304 303 302 301 300 299 298 296 295 295 294 293 292 291 290 288 287 285 283 281 280 278 276 274 272 270 268 266 263 260 258
302 302 303 303 303 304 304 304 305 305 306 306 306 305 304 304 302 301 300 299 298 297 297 296 296 295 293 292 290 288 286 284 282 280 278 276 274 272 270 268 265 262 259
301 302 303 303 304 304 305 305 306 306 307 307 306 306 306 305 305 304 304 303 302 301 300 299 298 297 296 294 292 290 288 286 284 283 280 278 275 273 272 270 267 264 260
301 302 303 303 305 306 306 306 307 307 307 307 307 307 307 307 307 307 306 306 305 304 304 302 301 300 298 296 294 292 290 289 288 286 283 280 277 275 273 271 268 265 262
300 301 302 303 304 305 306 307 307 307 307 308 308 309 309 309 308 308 307 307 307 306 306 305 304 302 301 299 297 295 294 292 291 288 286 283 279 276 273 271 268 266 263
300 301 301 302 303 305 306 307 307 308 308 309 309 310 309 309 309 309 309 309 308 308 307 306 305 304 303 301 299 298 296 295 293 291 288 285 281 278 275 272 269 266 264
299 300 301 302 303 304 306 307 308 308 309 309 310 310 310 311 311 311 310 310 310 309 309 308 307 306 305 303 301 300 298 297 295 293 290 288 285 282 278 275 271 268 265
299 300 301 302 303 304 306 307 308 308 309 310 311 311 311 312 312 312 312 311 311 311 310 309 308 308 307 306 304 303 301 299 297 295 293 291 289 286 282 277 273 267 263
299 299 300 302 303 305 307 307 308 308 309 311 312 312 312 313 314 314 313 313 312 312 312 311 310 309 309 307 307 305 304 303 300 298 296 295 293 289 285 279 273 267 263
298 299 300 302 304 305 307 307 308 309 309 311 312 313 314 314 315 315 314 314 314 313 313 312 312 311 310 309 308 307 306 305 303 301 299 297 296 292 286 279 273 268 264
298 299 301 302 304 305 307 307 308 309 310 311 313 314 315 315 316 316 316 316 315 315 314 314 313 313 312 311 310 309 308 307 305 303 302 300 297 293 288 281 275 269 265
297 299 301 302 303 305 306 307 308 309 310 312 314 315 316 317 317 317 317 317 317 316 316 316 315 314 314 313 312 310 310 310 308 306 305 302 298 295 291 285 278 270 265
297 300 301 303 304 305 306 307 307 309 311 313 315 316 317 318 318 319 319 319 318 317 317 317 317 316 316 316 316 314 313 312 310 310 307 302 297 295 294 290 283 273 263
297 299 301 303 305 306 307 307 308 309 312 314 315 317 318 319 320 320 321 320 320 319 319 320 319 319 319 319 319 318 317 315 312 310 308 303 298 296 295 293 288 276 258
297 299 301 303 305 306 307 307 308 310 312 314 316 318 319 320 321 322 323 322 322 322 322 322 322 321 321 321 321 321 321 319 316 313 309 304 299 298 297 293 287 273 254
297 299 301 303 305 305 306 307 308 310 312 314 316 318 319 321 322 324 325 325 324 324 325 325 325 324 325 325 324 324 324 323 321 318 313 305 299 300 296 289 285 266 243
297 299 301 303 304 305 305 306 308 310 312 314 316 318 320 321 323 324 325 326 326 326 326 326 327 327 327 328 328 328 327 326 325 324 320 310 305 304 296 283 265 242 215